Regional Weather Roundup
Issued by NWS

Home | Current Version | Previous Version | Graphics & Text | Print | Product List | Glossary On
Versions: 1 2 3 4 5 6 7 8 9 10 11 12 13 14 15 16 17 18 19 20 21 22 23 24 25 26 27 28 29 30 31 32 33 34 35 36 37 38 39 40 41 42 43 44 45 46 47 48 49 50
000
ASUS45 KPSR 260200
RWRAZ

PRELIMINARY ARIZONA REGIONAL HOURLY WEATHER ROUNDUP
NATIONAL WEATHER SERVICE PHOENIX AZ
700 PM MST THU DEC 25 2014

NOTE: FAIR INDICATES FEW OR NO CLOUDS BELOW 12,000 FEET WITH NO
SIGNIFICANT WEATHER AND/OR OBSTRUCTIONS TO VISIBILITY.

AZZ001>003-036-260300-
NORTHWEST ARIZONA

CITY           SKY/WX    TMP DP  RH WIND       PRES   REMARKS
KINGMAN        CLOUDY    37   6  27 N6        29.81R WCI  32
$$

AZZ004>008-015-016-018-260300-
NORTH CENTRAL ARIZONA

CITY           SKY/WX    TMP DP  RH WIND       PRES   REMARKS
GRAND CANYON   PTCLDY    21   5  50 VRB3      29.70R
PRESCOTT       CLEAR     29   4  34 NW8       29.76R WCI  21
FLAGSTAFF      NOT AVBL
PAYSON         PTCLDY    34  19  55 S5        29.73S WCI  30
PAGE           MOCLDY    36  16  44 W6        29.69R WCI  31
$$

AZZ009>014-017-260300-
NORTHEAST ARIZONA

CITY           SKY/WX    TMP DP  RH WIND       PRES   REMARKS
WINSLOW        NOT AVBL
SAINT JOHNS    CLOUDY    33  29  85 S9        29.70R WCI  25
WINDOW ROCK    FLURRIES  27  23  85 CALM      29.68R
$$

AZZ023-260300-
GREATER PHOENIX AREA

CITY           SKY/WX    TMP DP  RH WIND       PRES   REMARKS
PHOENIX        CLEAR     56  21  25 W15G22    29.73R
GLENDALE       PTCLDY    54  23  30 W9        29.75R
LUKE AFB       CLEAR     54  19  25 W10       29.74R
DEER VALLEY    CLEAR     53  19  26 W9        29.72R
SCOTTSDALE     CLEAR     54  21  27 W3        29.74R
MESA-FALCON    PTCLDY    52  27  37 S6        29.73
MESA-GATEWAY   PTCLDY    46  30  53 SE5       29.76
CHANDLER       PTCLDY    54  28  37 SW7       29.74R
$$

AZZ027-028-260300-
SOUTHWEST MARICOPA COUNTY AND PINAL COUNTY

CITY           SKY/WX    TMP DP  RH WIND       PRES   REMARKS
CASA GRANDE    CLEAR     52  27  37 CALM      29.75R
$$

AZZ503-504-507>509-260300-
SOUTHEAST ARIZONA

CITY           SKY/WX    TMP DP  RH WIND       PRES   REMARKS
TUCSON         LGT RAIN  47  42  83 NW8       29.79R
DAVIS-MONTHAN  RAIN      45  40  83 W3        29.77R
RYAN FIELD       N/A     50  46  87 S7        29.80R
NOGALES        CLOUDY    54  38  54 SW16G24   29.77S
SIERRA VISTA   PTCLDY    52  34  50 SW17G36   29.74S
SAFFORD        CLOUDY    51  30  44 NW24G31   29.71R
$$

AZZ020-021-025-026-031-260300-
SOUTHWEST ARIZONA

CITY           SKY/WX    TMP DP  RH WIND       PRES   REMARKS
YUMA           MOCLDY   N/A N/A N/A N10       29.81R
$$

CAZ031-033-041-043-047-048-061-260300-
SOUTHERN CALIFORNIA

CITY           SKY/WX    TMP DP  RH WIND       PRES   REMARKS
DOWNTOWN L.A.  CLEAR     58  19  22 NW10      29.86R
L.A. AIRPORT   PTCLDY    57  15  19 NW15      29.88R
SAN DIEGO      PTCLDY    60  40  47 NW5       29.86R
BURBANK        CLEAR     54  17  23 NW5       29.89R
ONTARIO        CLEAR     56  11  16 NE12G21   29.83R
RIVERSIDE      CLEAR     56  15  20 N10G20    29.85R
PALM SPRINGS   CLEAR     60   4  10 NW8       29.85R
EL CENTRO NAS  MOCLDY    56  21  25 N10       29.82R
IMPERIAL       CLOUDY    60  12  15 N7        29.81R
BLYTHE         CLEAR     57   8  14 NW21      29.83R
$$

NVZ020-UTZ003-260300-
SOUTHERN NEVADA-UTAH

CITY           SKY/WX    TMP DP  RH WIND       PRES   REMARKS
LAS VEGAS      NOT AVBL
SALT LAKE CITY CLOUDY    29  27  92 NW10      29.78R WCI  20
$$

NMZ009-TXZ055-260300-
NEW MEXICO-WEST TEXAS

CITY           SKY/WX    TMP DP  RH WIND       PRES   REMARKS
ALBUQUERQUE    PTCLDY    42  24  49 NW17G24   29.66R
EL PASO        MOCLDY    59  19  21 SW17      29.71R
$$


........................KEY........................
SKY/WX - SKY CONDITION/WEATHER
TMP    - TEMPERATURE IN FAHRENHEIT
DP     - DEW POINT IN FAHRENHEIT
RH     - RELATIVE HUMIDITY IN PERCENT
WIND   - DIRECTION AND SPEED IN MILES PER HOUR (MPH)
VRB    - VARIABLE WIND DIRECTION
PRES   - MEAN SEA LEVEL PRESSURE IN INCHES OF MERCURY
         F - FALLING PRESSURE   R - RISING PRESSURE
         S - STEADY PRESSURE
VSB    - VISIBILITY IN MILES
HX     - HEAT INDEX IN FAHRENHEIT
WCI    - WIND CHILL INDEX IN FAHRENHEIT
TC     - TEMPERATURE IN CELSIUS WHICH IS ALSO KNOWN AS
         TEMPERATURE IN CENTIGRADE
AFB    - AIR FORCE BASE
         LUKE AFB IS LUKE AIR FORCE BASE
         DAVIS-MONTHAN IS DAVIS-MONTHAN AIR FORCE BASE
NAS    - NAVAL AIR STATION
         EL CENTRO NAS IS EL CENTRO NAVAL AIR STATION
N/A    - NOT AVAILABLE



USA.gov is the U.S. government's official web portal to all federal, state and local government web resources and services.